Punta Gorda, FL

2:51 AM EST on December 14, 2019 (GMT -0500)
Charlotte County

Weather History for KPGD - September, 2019

Change the Weather History Date:

Saturday, September 14, 2019

  Actual Average Record
Temperature  
Mean Temperature 82 °F -  
Max Temperature 88 °F 87 °F 93 °F (2008)
Min Temperature 75 °F 72 °F 70 °F (1998)
Cooling Degree Days 16    
Growing Degree Days 32 (Base 50)    
Moisture  
Dew Point 77 °F    
Average Humidity 89    
Maximum Humidity 100    
Minimum Humidity 63    
Precipitation  
Precipitation 0.44 in - - ()
Sea Level Pressure  
Sea Level Pressure 29.97 in    
Wind  
Wind Speed 10 mph (NE)    
Max Wind Speed 22 mph    
Max Gust Speed 34 mph    
Visibility 9 miles    
Events Rain , Thunderstorm    
Averages and records for this station are not official NWS values.
T = Trace of Precipitation, MM = Missing Value Source: NWS Daily Summary

Daily Weather History Graph

Daily Weather History Graph

Search for Another Location

Airport or City:

Astronomy

Sep. 14, 2019 Rise Set
Actual Time 7:12 AM EDT 7:33 PM EDT
Civil Twilight 6:49 AM EDT 7:57 PM EDT
Nautical Twilight 6:22 AM EDT 8:24 PM EDT
Astronomical Twilight 5:54 AM EDT 8:51 PM EDT
Moon 8:13 PM EDT 7:29 AM EDT
Length of Visible Light 13h 07m
Length of Day
12h 20m
Full, 100% of the Moon is Illuminated
Sep 14
Full
Sep 21
Last Quarter
Sep 28
New
Oct 5
First Quarter
Oct 13
Full

Hourly Weather History & Observations

Time (EDT) Temp. Heat Index Dew Point Humidity Pressure Visibility Wind Dir Wind Speed Gust Speed Precip Events Conditions
12:53 AM 77.0 °F - 75.9 °F 96% 30.01 in 10.0 mi NNE 6.9 mph - N/A   Clear
1:53 AM 77.0 °F - 75.9 °F 96% 29.99 in 10.0 mi NNE 8.1 mph - N/A   Clear
2:53 AM 77.0 °F - 75.9 °F 96% 29.98 in 10.0 mi NNE 8.1 mph - N/A   Clear
3:53 AM 75.9 °F - 75.0 °F 97% 29.96 in 10.0 mi NE 8.1 mph - N/A   Partly Cloudy
4:53 AM 75.9 °F - 75.9 °F 100% 29.96 in 10.0 mi NE 8.1 mph - N/A   Clear
5:53 AM 75.9 °F - 75.9 °F 100% 29.96 in 10.0 mi NE 9.2 mph - N/A   Clear
6:53 AM 75.9 °F - 75.9 °F 100% 29.96 in 10.0 mi NE 9.2 mph - N/A   Clear
7:53 AM 77.0 °F - 75.9 °F 96% 29.97 in 10.0 mi NE 9.2 mph - N/A   Clear
8:53 AM 81.0 °F 87.3 °F 75.9 °F 85% 30.00 in 10.0 mi NE 10.4 mph - N/A   Clear
9:53 AM 84.0 °F 92.6 °F 75.9 °F 76% 30.00 in 10.0 mi ENE 16.1 mph - N/A   Clear
10:53 AM 84.9 °F 93.3 °F 75.0 °F 72% 30.00 in 10.0 mi ENE 17.3 mph - N/A   Partly Cloudy
11:53 AM 88.0 °F 97.5 °F 75.0 °F 65% 29.98 in 10.0 mi ENE 15.0 mph 21.9 mph N/A   Scattered Clouds
12:53 PM 87.1 °F 97.3 °F 75.9 °F 69% 29.96 in 10.0 mi NE 19.6 mph 26.5 mph 0.00 in Rain Light Rain
1:53 PM 87.1 °F 96.3 °F 75.0 °F 67% 29.95 in 10.0 mi ENE 21.9 mph 34.5 mph 0.00 in   Scattered Clouds
2:53 PM 88.0 °F 96.5 °F 73.9 °F 63% 29.94 in 10.0 mi ENE 16.1 mph 25.3 mph N/A   Mostly Cloudy
3:53 PM 88.0 °F 97.5 °F 75.0 °F 65% 29.93 in 10.0 mi NE 15.0 mph 23.0 mph N/A   Mostly Cloudy
4:05 PM 87.1 °F 96.3 °F 75.0 °F 67% 29.92 in 10.0 mi NE 16.1 mph - N/A Thunderstorm Mostly Cloudy
4:14 PM 80.1 °F 86.7 °F 79.0 °F 96% 29.94 in 1.8 mi ESE 18.4 mph 27.6 mph 0.11 in Rain , Thunderstorm Heavy Thunderstorms and Rain
4:47 PM 77.0 °F - 77.0 °F 100% - 4.0 mi SSE 8.1 mph - 0.42 in Rain Rain
4:48 PM 77.0 °F - 77.0 °F 100% - 8.0 mi SSE 8.1 mph - 0.42 in Rain Light Rain
5:53 PM 79.0 °F - 79.0 °F 100% - 10.0 mi Calm Calm - 0.01 in Rain Light Rain
6:53 PM 80.1 °F 87.4 °F 80.1 °F 100% - 10.0 mi ENE 5.8 mph - 0.01 in   Scattered Clouds
7:53 PM 80.1 °F 86.4 °F 78.1 °F 94% - 10.0 mi NE 10.4 mph - N/A   Scattered Clouds
8:53 PM 78.1 °F - 78.1 °F 100% 29.97 in 10.0 mi North 3.5 mph - N/A   Scattered Clouds
9:53 PM 79.0 °F - 78.1 °F 97% 30.00 in 10.0 mi North 3.5 mph - N/A   Mostly Cloudy
10:53 PM 78.1 °F - 78.1 °F 100% 30.00 in 10.0 mi NE 4.6 mph - N/A   Scattered Clouds
11:53 PM 78.1 °F - 78.1 °F 100% 29.98 in 10.0 mi NE 8.1 mph - N/A   Mostly Cloudy